Weather observations for the past three days for
Bainbridge, Decatur County Industrial Air Park Airport
Metric (Imperial)
Date Time (edt) Wind (kph) Vis. (km) Weather Sky Cond. Temperature (ºC) Relative Humidity Wind Chill (°C) Heat Index (°C) Pressure Precipitation (cm)
Air Dwpt 6 hour altimeter (cm) sea level (mb) 1 hr 3 hr 6 hr
Max. Min.
03 16:35 W 7 16.09 Fair CLR 23.5 5.1 30% 76.38 0.0
03 16:15 N 15 16.09 Fair CLR 23.7 4.1 28% 76.38 0.0
03 15:55 SE 7 16.09 Fair CLR 23.2 4.1 29% 76.4 0.0
03 15:35 N 15 16.09 Fair CLR 23.9 4.6 29% 25 76.43 0.0
03 15:15 N 7 16.09 Fair CLR 23.6 4.7 29% 76.45 0.0
03 14:55 NE 15 16.09 Fair CLR 23.3 4 29% 76.45 0.0
03 14:35 N 17 16.09 Fair CLR 23.3 4.6 30% 76.48 0.0
03 14:15 NE 7 16.09 Fair CLR 22.5 4.4 31% 76.5 0.0
03 13:55 NW 13 16.09 Fair CLR 22.8 4.9 23.1 11 31% 76.53 0.0
03 13:35 NW 11 16.09 Fair CLR 22.4 4.1 30% 76.56 0.0
03 13:15 W 7 16.09 Fair CLR 21.6 3.9 31% 76.56 0.0
03 12:55 NE 15 16.09 Fair CLR 21.9 3.9 31% 76.58 0.0
03 12:35 N 13 16.09 Fair CLR 21.6 3 30% 76.61 0.0
03 12:15 N 20 16.09 Fair CLR 21.7 3.8 31% 76.61 0.0
03 11:55 N 17 G 26 16.09 Fair CLR 21.6 3 30% 76.61 0.0
03 11:35 N 19 16.09 Fair CLR 21.3 5.3 35% 76.63 0.0
03 11:15 NE 15 16.09 Fair CLR 20.9 4 33% 76.61 0.0
03 10:55 NE 9 16.09 Fair CLR 20.2 6.8 42% 76.61 0.0
03 10:35 E 9 16.09 Fair CLR 19.3 7.1 45% 76.61 0.0
03 10:15 NE 6 16.09 Fair CLR 17.9 7.6 51% 76.58 0.0
03 09:55 NE 7 16.09 Fair CLR 17.4 6.9 50% 76.58 0.0
03 09:35 N 7 16.09 Fair CLR 16 7.3 57% 76.58 0.0
03 09:15 E 7 16.09 Fair CLR 15.3 7.4 60% 76.58 0.0
03 08:55 NE 6 16.09 Fair CLR 14 7.5 65% 76.58 0.0
03 08:35 NE 7 16.09 Fair CLR 13.1 8.2 72% 76.58 0.0
03 08:15 N 9 16.09 Fair CLR 11.6 9.1 85% 76.56 0.0
03 07:55 N 7 16.09 Fair CLR 10.9 8.5 14 7.5 85% 76.56 0.0
03 07:35 Calm 16.09 Fair CLR 9 9 100% 76.5 0.0
03 07:15 Calm 16.09 Fair CLR 8 0 0% 76.5 0.0
03 06:55 Calm 16.09 Fair CLR 8 0 0% 76.48 0.0
03 06:35 Calm 16.09 Fair CLR 8.6 8.1 97% 76.48 0.0
03 06:15 Calm 16.09 Fair CLR 8.9 8.5 97% 76.45 0.0
03 05:55 N 7 16.09 Fair CLR 9.5 9.1 97% 9 76.43 0.0
03 05:35 Calm 16.09 Fair CLR 9 9 100% 76.45 0.0
03 05:15 Calm 16.09 Fair CLR 9.2 8.3 94% 76.43 0.0
03 04:55 NW 7 16.09 Fair CLR 10.2 8.7 91% 76.43 0.0
03 04:35 NW 7 16.09 Fair CLR 10.8 8.1 84% 76.43 0.0
03 04:15 NW 7 16.09 Fair CLR 11.5 7.2 75% 76.43 0.0
03 03:55 N 7 16.09 Fair CLR 11.9 6.9 72% 76.4 0.0
03 03:35 N 9 16.09 Fair CLR 11.8 7 73% 76.38 0.0
03 03:15 N 7 16.09 Fair CLR 12 6.8 71% 76.38 0.0
03 02:55 N 7 16.09 Fair CLR 12.4 6.8 69% 76.35 0.0
03 02:35 N 11 16.09 Fair CLR 13 6.8 66% 76.35 0.0
03 02:15 N 13 16.09 Fair CLR 13.4 6.7 64% 76.35 0.0
03 01:55 N 19 16.09 Fair CLR 13.9 6.5 20.7 13.5 61% 76.35 0.0
03 01:35 N 15 16.09 Fair CLR 13.6 7 65% 76.35 0.0
03 01:15 N 13 16.09 Fair CLR 13.8 7.2 65% 76.35 0.0
03 00:55 N 11 16.09 Fair CLR 13.9 7.6 66% 76.33 0.0
03 00:35 N 11 16.09 Fair CLR 14.1 7.9 67% 76.33 0.0
03 00:15 N 11 16.09 Fair CLR 14.5 7.9 65% 76.3 0.0
02 23:55 N 11 16.09 Fair CLR 14.9 8 64% 76.28 0.0
02 23:35 N 13 16.09 Fair CLR 15.4 8.1 62% 76.28 0.0
02 23:15 NW 13 16.09 Fair CLR 15.7 8.6 63% 76.28 0.0
02 22:55 NW 15 16.09 Fair CLR 16.2 8.9 62% 76.25 0.0
02 22:35 N 17 16.09 Fair CLR 16.8 9.4 62% 76.23 0.0
02 22:15 NW 15 16.09 Fair CLR 17.3 10.2 63% 76.2 0.0
02 21:55 NW 17 16.09 Fair CLR 17.5 11.1 66% 76.17 0.0
02 21:35 NW 11 16.09 Fair CLR 17.8 11.9 69% 76.15 0.0
02 21:15 NW 11 16.09 Fair CLR 18.2 12.3 69% 76.1 0.0
02 20:55 NW 9 16.09 Fair CLR 17.6 13.8 79% 76.07 0.0
02 20:35 NW 11 16.09 Fair CLR 19.2 12.2 64% 76.05 0.0
02 20:15 NW 13 16.09 Partly Cloudy SCT049 20 12.2 61% 76.02 0.0
02 19:55 N 15 16.09 Fair CLR 20.9 11.7 23.2 16.7 56% 75.97 0.0
02 19:35 N 17 16.09 Fair CLR 21.5 12.1 55% 75.95 0.0
02 19:15 N 19 16.09 Fair CLR 22 11.9 53% 75.95 0.0
02 18:55 N 17 16.09 Partly Cloudy SCT046 22.2 11.7 52% 75.92 0.0
02 18:35 NE 17 16.09 Overcast OVC044 22.5 12.7 54% 75.92 0.0
02 18:15 NE 13 16.09 Overcast OVC040 22.4 12.4 53% 75.92 0.0
02 17:55 N 9 16.09 Overcast BKN040 OVC050 22.6 12.8 54% 75.92 0.0
02 17:35 NE 13 16.09 Mostly Cloudy BKN040 BKN050 20.8 13 61% 75.92 0.0
02 17:15 N 15 16.09 Mostly Cloudy SCT037 BKN048 20.9 12.9 60% 75.92 0.0
02 16:55 N 17 16.09 Overcast SCT041 OVC048 20.1 13.2 65% 75.95 0.0
02 16:35 N 19 16.09 Overcast SCT032 BKN041 OVC060 21 13.7 63% 75.95 0.0
02 16:15 N 17 16.09 Overcast SCT028 BKN035 OVC060 20.1 13.4 66% 75.95 0.0
02 15:55 N 19 16.09 Overcast BKN026 BKN034 OVC049 19.7 13.7 68% 75.97 0.0
02 15:35 N 22 16.09 Overcast BKN024 OVC030 19.5 14 71% 76 0.0
02 15:15 N 22 16.09 Overcast BKN022 BKN030 OVC046 19.2 14.6 75% 75.97 0.0
02 14:55 N 17 G 26 16.09 Overcast BKN020 BKN024 OVC042 19.1 14.7 76% 75.97 0.0
02 14:35 NE 19 16.09 Overcast BKN016 OVC040 19.2 14.5 74% 75.95 0.0
02 14:15 NE 15 16.09 Overcast BKN014 BKN031 OVC040 17.9 14.8 82% 75.95 0.0
02 13:55 NE 22 16.09 Overcast OVC012 16.6 14.8 16.9 12.8 89% 75.97 0.0 0.15
02 13:35 N 22 16.09 Overcast OVC012 15.9 14.9 94% 75.97 0.0
02 13:15 N 19 5.63 Fog/Mist BKN010 OVC016 15 15 100% 76 0.0
02 12:55 N 20 16.09 Overcast OVC011 15.2 14.4 95% 76 0.0
02 12:35 N 22 16.09 Overcast OVC011 15 14.3 96% 76.02 0.0
02 12:15 N 17 16.09 Overcast OVC013 14.9 14.6 98% 76.02 0.0
02 11:55 N 22 G 30 16.09 Overcast OVC013 14.5 14.3 99% 76 0.0
02 11:35 N 20 16.09 Overcast BKN010 OVC014 14 0 0% 76 0.0
02 11:15 N 15 16.09 Light Rain OVC010 14 0 0% 75.97 0.0
02 10:55 NE 15 16.09 Light Rain OVC010 14 0 0% 75.97 0.0 0.15
02 10:35 NE 19 16.09 Overcast OVC008 14 0 0% 75.9 0.0
02 10:15 NE 19 16.09 Overcast OVC008 13 0 0% 75.9 0.0
02 09:55 NE 17 16.09 Overcast OVC008 13 0 0% 75.92 0.0
02 09:35 N 15 16.09 Light Rain OVC006 13 0 0% 75.95 0.0
02 09:15 NE 11 16.09 Overcast OVC006 13 0 0% 75.95 0.0
02 08:55 NE 22 16.09 Overcast OVC006 13 0 0% 75.9 0.0 0.15
02 08:35 N 19 8.05 Rain OVC006 13 0 0% 75.9 0.0 0.13
02 08:15 N 19 11.27 Rain OVC006 13 0 0% 75.95 0.0 0.05
02 07:55 N 20 16.09 Light Rain OVC004 13 0 15 13 0% 75.9 0.0 0.48 3
02 07:35 N 19 11.27 Rain BKN004 OVC011 13 0 0% 75.87 0.0 0.46
02 07:15 N 15 6.44 Rain BKN006 OVC026 13 0 0% 75.87 0.0 0.28
02 06:55 NW 24 6.44 Heavy Rain Fog/Mist OVC004 14 0 0% 75.92 0.0 0.79
02 06:35 N 15 8.05 Heavy Rain OVC004 14 0 0% 75.82 0.0 0.36
02 06:15 NE 17 16.09 Rain OVC004 14 0 0% 75.77 0.0 0.03
02 05:55 NE 13 11.27 Light Rain BKN004 OVC046 14 0 0% 75.77 0.0 0.79
02 05:35 NE 9 11.27 Light Rain BKN006 BKN046 OVC110 14 0 0% 75.82 0.0 0.58
02 05:15 NE 9 8.05 Heavy Rain OVC004 14 0 0% 75.82 0.0 0.43
02 04:55 N 7 11.27 Rain BKN004 OVC008 14 0 0% 75.9 0.0 0.58 0.89
02 04:35 NE 17 8.05 Rain BKN006 BKN016 OVC050 15 0 0% 75.79 0.0 0.43
02 04:15 N 17 8.05 Rain BKN006 OVC022 15 0 0% 75.84 0.0 0.1
02 03:55 NE 15 11.27 Rain OVC006 15 0 0% 75.82 0.0 0.13
02 03:35 E 15 11.27 Light Rain OVC004 15 0 0% 75.82 0.0 0.1
02 03:15 N 7 16.09 Rain OVC004 15 0 0% 75.87 0.0 0.03
02 02:55 E 11 16.09 Light Rain BKN004 BKN026 OVC055 15 0 0% 75.84 0.0 0.15
02 02:35 E 11 8.05 Light Rain SCT010 BKN050 OVC075 15 0 0% 75.9 0.0 0.15
02 02:15 E 13 11.27 Rain SCT007 BKN020 OVC075 15 0 0% 75.95 0.0 0.05
02 01:55 NE 11 8.05 Heavy Rain BKN005 BKN016 OVC075 15 0 16.9 13.9 0% 76 0.0 1.19 3.3
02 01:35 N 9 5.63 Heavy Rain Fog/Mist BKN005 OVC012 15 0 0% 76.02 0.0 0.86
02 01:15 NW 17 8.05 Heavy Rain OVC005 14 0 0% 76.02 0.0 0.18
02 00:55 NE 19 8.05 Rain BKN007 BKN013 OVC043 14 0 0% 75.92 0.0 0.41
02 00:35 NE 13 6.44 Heavy Rain Fog/Mist BKN005 BKN021 OVC049 14 0 0% 76 0.0 0.3
02 00:15 NW 15 8.05 Light Rain SCT011 BKN048 OVC050 14 0 0% 76 0.0 0.05
01 23:55 NE 22 6.44 Heavy Rain SCT012 BKN039 OVC050 14 0 0% 75.95 0.0 0.66
01 23:35 NE 15 8.05 Rain SCT023 BKN037 OVC050 14 0 0% 75.97 0.0 0.38
01 23:15 NE 15 8.05 Rain SCT009 BKN023 OVC050 14 0 0% 76 0.0 0.15
01 22:55 NE 19 8.05 Light Rain SCT011 BKN022 OVC050 15 0 0% 76 0.0 0.66 0.99
01 22:35 N 15 8.05 Heavy Rain SCT010 BKN014 OVC023 15 0 0% 76.05 0.0 0.33
01 22:15 NE 20 16.09 Light Rain BKN006 BKN010 OVC025 15 0 0% 76 0.0
01 21:55 N 13 16.09 Light Rain BKN006 OVC009 16 0 0% 75.97 0.0 0.03
01 21:35 NE 13 11.27 Light Rain SCT006 BKN026 OVC055 16 0 0% 75.95 0.0 0.03
01 21:15 N 11 16.09 Light Rain SCT013 SCT026 OVC055 16 0 0% 75.97 0.0
01 20:55 NE 13 16.09 Light Rain SCT011 BKN060 OVC110 16 0 0% 75.95 0.0 0.25
01 20:35 NE 17 8.05 Heavy Rain SCT013 BKN038 OVC060 17 0 0% 75.9 0.0 0.23
01 20:15 NE 13 6.44 Rain SCT007 SCT031 OVC060 17 0 0% 75.92 0.0 0.13
01 19:55 NE 11 6.44 Heavy Rain Fog/Mist BKN007 BKN028 OVC036 17 0 21.1 16.7 0% 75.9 0.0 0.23 0.48
01 19:35 NE 15 16.09 Light Rain BKN007 BKN050 OVC065 17 0 0% 75.9 0.0 0.1
01 19:15 N 11 8.05 Light Rain BKN007 BKN031 OVC075 17 0 0% 75.92 0.0 0.08
01 18:55 N 7 16.09 Light Rain SCT031 OVC075 17 0 0% 75.97 0.0 0.05
01 18:35 NE 17 16.09 Light Rain SCT075 BKN085 OVC120 17 0 0% 75.87 0.0 0.03
01 18:15 NE 19 16.09 Light Rain SCT090 OVC120 17 0 0% 75.9 0.0 0.03
01 17:55 NE 13 11.27 Light Rain SCT090 OVC110 17 0 0% 75.9 0.0 0.15
01 17:35 NE 9 16.09 Light Rain OVC120 17 0 0% 75.92 0.0 0.08
01 17:15 NE 15 16.09 Light Rain OVC110 17 0 0% 75.9 0.0 0.05
01 17:00 NE 15 16.09 Rain SCT035 SCT050 OVC110 17 0 0% 75.92 0.0 0.03
01 16:35 NE 13 16.09 Light Rain SCT033 BKN050 OVC085 17.6 17.3 98% 75.92 0.0 0.03
01 16:15 N 11 11.27 Light Rain OVC031 18 16.8 93% 76 0.0
01 15:55 N 17 16.09 Overcast OVC029 18.6 14.9 79% 76 0.0
01 15:35 NE 20 16.09 Overcast OVC029 20.6 13.7 65% 75.95 0.0
01 15:15 NE 20 16.09 Overcast BKN029 BKN040 OVC050 20.2 13.4 65% 76 0.0
01 14:55 NE 17 16.09 Overcast SCT029 BKN049 OVC090 19.8 13.5 67% 76.02 0.0
01 14:35 N 17 16.09 Overcast OVC029 20.5 13.5 64% 76.05 0.0
01 14:15 NE 17 16.09 Overcast OVC029 20.2 13.6 66% 76.05 0.0
01 13:55 NE 20 16.09 Overcast OVC031 20.2 13.5 22.3 18.1 66% 76.05 0.0
01 13:35 N 20 16.09 Overcast OVC029 21.3 11.8 55% 76.05 0.0
01 13:15 E 22 16.09 Overcast OVC029 21.1 12.1 57% 76.02 0.0
01 12:55 NE 17 16.09 Overcast OVC029 20.2 12.3 61% 76.07 0.0
01 12:35 N 15 16.09 Overcast OVC029 20.6 12.5 60% 76.1 0.0
01 12:15 NE 19 16.09 Overcast OVC027 20.8 11.9 57% 76.1 0.0
01 11:55 NE 15 16.09 Overcast OVC027 21.9 12.3 55% 76.07 0.0
01 11:35 NE 19 16.09 Overcast OVC027 21.8 12.9 57% 76.05 0.0
01 11:15 NE 13 16.09 Light Drizzle OVC027 20.1 12.6 62% 76.07 0.0
01 10:55 NE 7 16.09 Overcast BKN027 OVC041 19.7 12.4 63% 76.1 0.0
01 10:35 NE 11 16.09 Overcast SCT027 OVC041 19.7 12.5 63% 76.1 0.0
01 10:15 NE 11 16.09 Overcast SCT041 OVC090 20 13 64% 76.05 0.0
01 09:55 NE 13 16.09 Overcast SCT033 BKN090 OVC110 19.3 13.5 69% 76.05 0.0
01 09:35 NE 11 16.09 Light Rain SCT037 BKN085 OVC110 18.3 13.7 75% 76.05 0.0
01 09:15 NE 11 16.09 Light Rain SCT042 BKN065 OVC085 18.9 12.8 68% 76.05 0.0
01 08:55 NE 15 16.09 Light Rain SCT037 SCT050 BKN065 19.1 13.3 69% 76.05 0.0
01 08:35 NE 13 16.09 Partly Cloudy SCT100 19.3 12.7 66% 76.02 0.0
01 08:15 NE 13 16.09 Partly Cloudy SCT050 SCT070 SCT110 19.2 12.8 67% 76 0.0
01 07:55 NE 9 16.09 Mostly Cloudy SCT055 SCT065 BKN110 19.1 14.2 20.8 18.9 73% 75.97 0.0
01 07:35 NE 9 16.09 Mostly Cloudy SCT045 SCT065 BKN120 19.2 14.6 75% 75.95 0.0
01 07:15 N 13 16.09 Mostly Cloudy BKN043 BKN100 19.2 14.8 76% 75.95 0.0
01 06:55 N 11 16.09 Mostly Cloudy BKN045 BKN065 19.2 16.3 83% 75.95 0.0
01 06:35 N 11 16.09 Fair CLR 19 17.1 89% 75.92 0.0
01 06:15 N 9 16.09 Partly Cloudy SCT120 19 17.5 91% 75.9 0.0
01 05:55 N 9 16.09 Partly Cloudy SCT120 19.2 17.6 91% 75.92 0.0
01 05:35 N 9 16.09 Fair CLR 19.3 17.7 91% 75.92 0.0
01 05:15 N 6 16.09 Fair CLR 19.5 17.5 88% 75.9 0.0
01 04:55 NW 6 16.09 Fair CLR 19.5 17.8 90% 75.9 0.0
01 04:35 NW 7 16.09 Fair CLR 19.1 18.4 96% 75.9 0.0
01 04:15 NW 9 16.09 Fair CLR 19.7 17.8 89% 75.9 0.0
01 03:55 NW 9 16.09 Fair CLR 19.9 17.6 87% 75.87 0.0
01 03:35 N 9 16.09 Fair CLR 20.2 17.7 86% 75.84 0.0
01 03:15 N 7 16.09 Fair CLR 20.3 17.7 85% 75.87 0.0
01 02:55 N 7 16.09 Fair CLR 20.5 17.9 85% 75.87 0.0
01 02:35 N 6 16.09 Fair CLR 20.4 18.2 87% 75.84 0.0
01 02:15 N 6 16.09 Fair CLR 20.7 18.3 86% 75.9 0.0
01 01:55 N 7 16.09 Fair CLR 20.8 18.5 25.7 20.7 87% 75.92 0.0
01 01:35 N 6 16.09 Fair CLR 20.9 18.5 86% 75.95 0.0
01 01:15 Calm 16.09 Partly Cloudy SCT095 21 18.5 86% 75.92 0.0
01 00:55 N 6 16.09 Fair CLR 21.1 18.4 85% 75.95 0.0
01 00:35 NW 6 16.09 Partly Cloudy SCT070 21.3 18.5 84% 75.97 0.0
01 00:15 N 9 16.09 Mostly Cloudy BKN070 21.6 18.3 82% 76 0.0
30 23:55 NW 9 16.09 Mostly Cloudy BKN070 21.6 18.4 82% 76 0.0
30 23:35 NW 9 16.09 Fair CLR 21 18.7 87% 76 0.0
30 23:15 Calm 16.09 Fair CLR 21.3 18.3 83% 75.95 0.0
30 22:55 NW 6 16.09 Fair CLR 21.7 18.2 81% 75.95 0.0
30 22:35 N 7 16.09 Fair CLR 22.3 17.9 76% 75.92 0.0
30 22:15 N 7 16.09 Fair CLR 22.4 18 76% 75.92 0.0
30 21:55 N 7 16.09 Fair CLR 22.8 17.8 74% 75.9 0.0
30 21:40 NW 7 16.09 Fair CLR 23.2 17.7 71% 75.9 0.0
30 21:15 N 11 16.09 Fair CLR 23.8 17.5 68% 75.87 0.0
30 20:55 N 11 16.09 Partly Cloudy SCT041 24.3 17.4 65% 25 75.84 0.0
30 20:35 N 13 16.09 Partly Cloudy SCT065 24.8 17.4 64% 26 75.82 0.0
30 20:15 NW 9 16.09 Overcast SCT044 SCT049 OVC065 25.3 17.3 61% 26 75.77 0.0
30 19:55 NW 13 16.09 Mostly Cloudy BKN044 BKN050 BKN065 25.7 17.2 29.2 25.7 59% 27 75.79 0.0
30 19:35 NW 13 16.09 Partly Cloudy SCT044 SCT060 26 17.2 58% 27 75.77 0.0
30 19:15 W 17 16.09 Partly Cloudy SCT042 26.1 17.1 58% 27 75.74 0.0
30 18:55 W 13 16.09 Partly Cloudy SCT042 SCT060 26.9 17.4 56% 28 75.74 0.0
30 18:35 NW 19 16.09 Mostly Cloudy SCT042 BKN060 26.6 17.3 57% 27 75.74 0.0
30 18:15 NW 22 16.09 Overcast SCT042 SCT047 OVC060 27 17.3 55% 28 75.74 0.0
30 17:55 NW 19 16.09 Mostly Cloudy SCT044 BKN060 27.3 17.2 54% 28 75.77 0.0
30 17:35 W 22 16.09 Mostly Cloudy SCT044 BKN050 27.5 16.9 52% 28 75.77 0.0
30 16:55 NW 17 16.09 Partly Cloudy SCT047 SCT055 27.3 16.8 53% 28 75.74 0.0
Date Time (edt) Wind (kph) Vis. (km) Weather Sky Cond. Air Dwpt Max. Min. Relative Humidity Wind Chill (°C) Heat Index (°C) altimeter (cm) sea level (mb) 1 hr 3 hr 6 hr
6 hour
Temperature (ºC) Pressure Precipitation (cm)